Weather observations for the past three days for
Akhiok
Metric (Imperial)
Date Time (akdt) Wind (kph) Vis. (km) Weather Sky Cond. Temperature (ºC) Relative Humidity Wind Chill (°C) Heat Index (°C) Pressure Precipitation (cm)
Air Dwpt 6 hour altimeter (cm) sea level (mb) 1 hr 3 hr 6 hr
Max. Min.
06 12:56 E 17 12.87 Overcast OVC003 12.2 12.2 100% 75.44 1005.6
06 11:56 SE 19 6.44 Fog/Mist OVC003 12.8 12.8 100% 75.46 1006.0
06 10:56 SE 20 8.05 Fog/Mist OVC003 12.2 12.2 100% 75.46 1006.0
06 09:56 SE 15 4.83 Light Rain Fog/Mist OVC003 12.2 12.2 12.8 12.2 100% 75.49 1006.4
06 08:56 SE 19 1.61 Fog/Mist OVC003 12.2 12.2 100% 75.51 1006.8
06 07:56 SE 15 16.09 Overcast BKN007 OVC015 12.2 12.2 100% 75.54 1006.9
06 06:56 SE 15 12.87 Light Rain OVC005 12 0 0% 75.59 1007.6
06 05:56 SE 20 16.09 Light Rain OVC009 12 0 0% 75.64 1008.3
06 04:56 E 24 12.87 Light Rain OVC011 12 0 0% 75.67 1008.9
06 03:56 E 24 8.05 Light Rain Fog/Mist OVC015 12.2 12.2 12.2 11.1 100% 75.74 1009.7
06 02:56 E 31 16.09 Light Rain OVC021 12 0 0% 75.79 1010.6
06 01:56 E 28 8.05 Rain Fog/Mist OVC014 11.7 11.7 100% 75.95 1012.5
06 00:56 E 20 9.66 Light Rain Fog/Mist OVC016 11.1 11.1 100% 76.02 1013.5
05 23:56 E 22 14.48 Light Rain OVC014 11.1 11.1 100% 76.12 1014.7
05 22:56 E 20 16.09 Overcast BKN021 OVC090 11.1 11.1 100% 76.2 1015.7
05 21:56 E 13 16.09 Overcast BKN007 OVC019 11.1 11.1 13.3 10.6 100% 76.25 1016.5
05 20:56 E 17 16.09 Overcast FEW003 OVC018 10.6 10.6 100% 76.25 1016.7
05 19:56 S 22 4.83 Fog/Mist OVC003 11.1 11.1 100% 76.3 1017.2
05 18:56 SW 6 16.09 Overcast OVC003 12 0 0% 76.33 1017.5
05 17:56 S 17 16.09 A Few Clouds FEW003 12.2 12.2 100% 76.35 1018.0
05 16:56 S 13 14.48 Overcast OVC001 12.2 12.2 100% 76.43 1018.8
05 15:56 S 15 16.09 A Few Clouds FEW017 13.3 13.3 13.9 11.1 100% 76.43 1019.1
05 14:56 S 17 16.09 Overcast OVC015 12.8 12.8 100% 76.48 1019.7
05 13:56 S 9 16.09 Overcast OVC015 13.3 11.7 90% 76.48 1019.6
05 12:56 SE 9 14.48 Overcast BKN010 OVC015 12.8 12.2 96% 76.5 1020.0
05 11:56 SE 6 12.87 Overcast BKN008 OVC014 11.7 11.7 100% 76.58 1020.8
05 09:56 Calm 2.41 Fog/Mist OVC002 11.1 11.1 11.1 10.6 100% 76.56 1020.6
05 08:56 S 9 2.41 Fog/Mist OVC002 10.6 10.6 100% 76.56 1020.5
05 07:56 S 11 1.61 Light Rain Fog/Mist OVC004 11.1 11.1 100% 76.53 1020.4
05 06:56 Calm 8.05 Fog/Mist OVC006 11.1 11.1 100% 76.53 1020.1
05 05:56 SW 13 12.87 Overcast OVC011 11.1 11.1 100% 76.5 1019.9
05 04:56 SW 11 9.66 Fog/Mist OVC005 11.1 11.1 100% 76.5 1019.8
05 02:56 W 17 4.02 Fog/Mist OVC003 11.7 11.7 100% 76.45 1019.2
05 01:56 W 26 G 33 11.27 Overcast OVC005 11.7 11.1 96% 76.45 1019.3
05 00:56 SW 13 16.09 Overcast OVC005 11.1 11.1 100% 76.4 1018.6
04 23:56 SW 13 16.09 Overcast OVC007 11.1 11.1 100% 76.38 1018.2
04 22:56 SW 17 G 33 12.87 Overcast BKN003 OVC007 12.2 12.2 100% 76.35 1017.8
04 21:56 S 20 12.87 Light Rain OVC005 12.2 12.2 13.3 12.2 100% 76.3 1017.3
04 20:56 S 24 G 31 12.87 Light Rain OVC007 12.2 12.2 100% 76.33 1017.6
04 19:56 S 19 4.02 Heavy Rain Fog/Mist OVC005 12.2 12.2 100% 76.33 1017.7
04 18:56 S 22 8.05 Light Rain Fog/Mist OVC005 12.2 12.2 100% 76.4 1018.4
04 17:56 S 15 11.27 Overcast OVC005 12.8 12.2 96% 76.43 1019.0
04 16:56 S 17 11.27 Overcast OVC007 12.8 12.2 96% 76.5 1019.9
04 15:56 S 13 16.09 Overcast OVC007 13.3 12.8 13.3 12.2 97% 76.53 1020.3
04 14:56 SW 11 16.09 Overcast OVC005 13.3 12.8 97% 76.58 1021.0
04 13:56 S 11 14.48 Overcast OVC003 13.3 12.8 97% 76.58 1021.0
04 12:56 Calm 12.87 Overcast OVC005 12.8 12.8 100% 76.61 1021.1
04 11:56 S 13 16.09 Overcast OVC003 12.8 12.8 100% 76.58 1021.1
04 10:56 S 7 4.83 Light Rain Fog/Mist OVC003 12.8 12.8 100% 76.61 1021.2
04 09:56 Vrbl 6 1.61 Fog/Mist OVC003 12.2 12.2 12.2 11.7 100% 76.61 1021.3
04 08:56 E 9 1.21 Fog/Mist OVC003 12.2 12.2 100% 76.63 1021.5
04 07:56 Vrbl 6 0.80 Light Rain Fog OVC003 12.2 11.7 97% 76.63 1021.6
04 06:56 E 9 12.87 Light Rain OVC003 12.2 11.7 97% 76.66 1022.0
04 05:56 Calm 16.09 Light Rain OVC003 11.7 11.7 100% 76.68 1022.2
04 04:56 Calm 3.22 Light Rain Fog/Mist OVC003 11.7 11.7 100% 76.68 1022.4
04 03:56 Calm 2.41 Light Rain Fog/Mist OVC003 11.7 11.7 11.7 11.1 100% 76.71 1022.5
04 02:56 SW 6 16.09 Overcast OVC005 11.7 11.7 100% 76.73 1023.0
04 01:56 S 9 2.82 Light Rain Fog/Mist OVC005 11.1 11.1 100% 76.73 1022.9
04 00:56 S 9 2.41 Light Rain Fog/Mist OVC005 11.1 11.1 100% 76.76 1023.1
03 23:56 S 7 2.82 Fog/Mist OVC005 11.1 11.1 100% 76.73 1023.1
03 22:56 SW 7 3.22 Fog/Mist OVC005 11.1 11.1 100% 76.76 1023.3
03 21:56 S 13 2.41 Fog/Mist OVC002 11.1 11.1 12.2 11.1 100% 76.76 1023.2
03 20:56 S 9 0.80 Light Rain Fog OVC002 11.7 11.7 100% 76.73 1023.1
03 19:56 S 9 0.40 Light Rain Fog OVC002 11.7 11.7 100% 76.76 1023.3
03 18:56 Calm 6.44 Fog/Mist OVC002 11.7 11.7 100% 76.76 1023.2
03 17:56 W 17 16.09 Overcast OVC006 12.2 12.2 100% 76.76 1023.3
03 16:56 Calm 6.44 Fog/Mist OVC003 11.7 11.7 100% 76.76 1023.4
03 15:56 W 13 2.01 Fog/Mist OVC003 11.7 11.7 12.8 11.1 100% 76.78 1023.7
03 14:56 W 20 4.02 Fog/Mist OVC005 12.2 11.7 97% 76.78 1023.7
03 13:56 SW 13 8.05 Fog/Mist OVC005 12.2 11.7 97% 76.78 1023.8
Date Time (akdt) Wind (kph) Vis. (km) Weather Sky Cond. Air Dwpt Max. Min. Relative Humidity Wind Chill (°C) Heat Index (°C) altimeter (cm) sea level (mb) 1 hr 3 hr 6 hr
6 hour
Temperature (ºC) Pressure Precipitation (cm)